Home   Weather   Saint George's   Past weeks

Flag for Grenada Past Weather in Saint George's, Grenada — Yesterday and Last 2 Weeks

Now
79 °F

Passing clouds.


Feels Like: 82 °F
Forecast: 72 / 77 °F
Wind: 16 mph from East

Location: Point Salines Airport

Current Time: Feb 24, 2017 at 8:56:02 pm

Latest Report: Feb 24, 2017 at 8:00 pm


Visibility: N/A

Pressure: 29.89 "Hg

Humidity: 89%

Dew Point: 75 °F

Location of Saint George'sLocation

Past Weather in Saint George's — Graph

°F

Saint George's Temperature Yesterday

Maximum temperature yesterday: 84 °F (at 2:00 pm)
Minimum temperature yesterday: 70 °F (at 6:00 am)
Average temperature yesterday: 78 °F

High & Low Weather Summary for the Past Weeks

 TemperatureHumidityPressure
High86 °F (Feb 14, 12:00 pm)94% (Feb 10, 8:00 am)30.07 "Hg (Feb 10, 8:00 am)
Low70 °F (Feb 23, 6:00 am)55% (Feb 12, 12:00 pm)29.80 "Hg (Feb 21, 3:00 pm)
Average79 °F78%29.94 "Hg
* Reported Feb 9 8:00 pm — Feb 24 7:00 pm, Saint George's, Weather by CustomWeather, © 2017

Note: Actual official high and low records may vary slightly from our data, if they occured in-between our weather recording intervals... More about our weather records

Advertising

Saint George's Weather History for the Previous 24 Hours

Scroll right to see more
 ConditionsComfort  
Time TempWeatherWind HumidityBarometerVisibility
7:00 pm
Fri, Feb 24
81 °FPassing clouds.14 mph84%29.89 "HgN/A
6:00 pm81 °FPassing clouds.14 mph84%29.89 "HgN/A
5:00 pm82 °FPassing clouds.12 mph79%29.89 "HgN/A
4:00 pm82 °FPassing clouds.13 mph79%29.86 "HgN/A
3:00 pm82 °FPassing clouds.14 mph79%29.89 "HgN/A
2:00 pm84 °FPassing clouds.23 mph74%29.89 "HgN/A
1:00 pm84 °FPassing clouds.15 mph70%29.92 "HgN/A
12:00 pm84 °FPassing clouds.21 mph74%29.95 "HgN/A
11:00 am82 °FPassing clouds.23 mph74%29.98 "HgN/A
10:00 am82 °FPassing clouds.22 mph79%29.98 "HgN/A
9:00 am81 °FPartly sunny.17 mph79%29.95 "HgN/A
8:00 am79 °FPartly sunny.12 mph84%29.95 "HgN/A
7:00 am77 °FPartly sunny.12 mph83%29.92 "HgN/A
6:00 am77 °FPartly cloudy.7 mph83%29.89 "HgN/A
5:00 am77 °FPassing clouds.9 mph83%29.89 "HgN/A
4:00 am77 °FPassing clouds.7 mph83%29.89 "HgN/A
3:00 am77 °FPassing clouds.9 mph83%29.89 "HgN/A
12:00 am75 °FPassing clouds.5 mph89%29.95 "HgN/A
11:00 pm
Thu, Feb 23
75 °FPassing clouds.3 mph89%29.95 "HgN/A
10:00 pm75 °FPassing clouds.6 mph89%29.92 "HgN/A
9:00 pm75 °FPassing clouds.7 mph89%29.89 "HgN/A
8:00 pm77 °FPassing clouds.7 mph83%29.89 "HgN/A
Weather by CustomWeather, © 2017

See weather overviewHow to use our weather pages